Date,TemperatureHighF,TemperatureAvgF,TemperatureLowF,DewpointHighF,DewpointAvgF,DewpointLowF,HumidityHigh,HumidityAvg,HumidityLow,PressureMaxIn,PressureMinIn,WindSpeedMaxMPH,WindSpeedAvgMPH,GustSpeedMaxMPH,PrecipitationSumIn
2013-1-1,34.3,32.1,27.6,33.0,29.9,22.0,99,92,78,30.16,30.06,5,1,8,0.03
2013-1-2,33.9,27.0,20.4,24.0,20.8,17.0,95,78,55,30.27,30.15,4,1,6,0.00
2013-1-3,37.5,28.1,19.2,25.0,20.8,17.0,95,75,51,30.36,30.23,13,1,13,0.02
2013-1-4,38.7,32.7,28.2,26.0,24.6,23.0,85,72,55,30.38,30.31,11,3,18,0.01
2013-1-5,42.6,33.6,24.3,31.0,27.1,23.0,94,78,57,30.41,30.20,6,1,10,0.02
2013-1-6,40.4,34.7,28.9,35.0,29.3,23.0,86,80,76,30.38,30.05,9,3,14,0.00
2013-1-7,42.7,32.4,23.4,29.0,25.8,22.0,96,78,58,30.50,30.27,7,2,10,0.00
2013-1-8,53.3,39.6,28.0,36.0,30.4,25.0,88,71,50,30.36,30.24,9,2,12,0.00
2013-1-9,55.1,46.1,40.0,47.0,39.3,32.0,98,78,61,30.51,30.24,4,1,9,0.04
2013-1-10,48.1,41.8,35.8,43.0,35.1,31.0,85,77,64,30.52,30.11,8,3,11,0.05
2013-1-11,63.2,56.4,48.2,56.0,51.3,43.0,97,83,67,30.11,29.90,14,5,23,0.34
2013-1-12,65.5,61.0,55.1,63.0,59.4,53.0,98,94,89,30.02,29.81,11,4,16,0.00
2013-1-13,65.6,55.4,36.8,62.0,54.1,36.0,99,95,82,30.11,29.75,11,5,24,0.79
2013-1-14,36.6,28.9,24.8,35.0,25.2,22.0,95,86,76,30.45,30.11,5,1,11,0.00
2013-1-15,31.6,28.6,23.8,29.0,25.0,21.0,93,86,79,30.40,30.09,8,2,14,0.00
2013-1-16,35.6,32.0,30.1,31.0,29.9,29.0,95,92,82,30.12,30.00,8,1,9,0.00
2013-1-17,40.8,33.7,29.0,32.0,28.5,22.0,91,81,70,30.40,30.12,5,1,9,0.02
2013-1-18,38.9,30.6,21.1,26.0,21.8,17.0,91,71,53,30.56,30.28,10,3,16,0.00
2013-1-19,55.0,45.2,35.6,31.0,27.8,24.0,68,52,33,30.28,29.95,16,7,26,0.00
2013-1-20,47.3,36.5,28.1,36.0,19.2,9.0,72,51,33,30.23,29.95,19,3,20,0.00
2013-1-21,28.2,23.1,14.1,19.0,11.6,2.0,77,62,49,30.28,30.11,12,3,20,0.00
2013-1-22,20.3,12.3,7.9,3.0,-17.1,-99.9,71,44,41,30.44,30.27,6,-174,13,0.00
2013-1-23,22.3,16.9,12.4,11.0,-4.0,-99.9,74,53,52,30.40,30.14,7,-94,11,0.00
2013-1-24,24.1,20.2,15.1,13.0,6.1,1.0,68,55,37,30.62,30.14,8,3,18,0.00
2013-1-25,26.2,22.4,19.4,23.0,14.4,-99.9,90,75,55,30.47,30.09,7,-8,10,0.00
2013-1-26,34.4,26.7,21.3,22.0,20.4,18.0,95,78,57,30.46,30.18,6,1,9,0.00
2013-1-27,38.1,30.5,21.7,37.0,24.1,18.0,96,77,62,30.47,30.21,9,4,10,0.13
2013-1-28,53.4,48.0,38.0,53.0,46.7,37.0,98,95,83,30.20,30.06,13,5,19,0.06
2013-1-29,65.7,59.6,52.5,60.0,55.4,51.0,97,86,74,30.07,29.60,18,6,25,0.00
2013-1-30,69.2,54.3,33.5,60.0,50.3,27.0,99,87,73,29.61,29.27,18,8,30,0.71
2013-1-31,33.2,27.8,19.3,26.0,20.4,13.0,93,74,56,30.04,29.56,22,6,25,0.00
2013-2-1,19.3,13.8,8.3,17.0,6.2,2.0,92,72,61,30.45,30.05,11,3,20,0.00
2013-2-2,32.2,23.3,13.0,28.0,20.1,9.0,94,87,75,30.38,30.04,9,2,13,0.00
2013-2-3,28.8,23.9,19.7,25.0,19.5,15.0,90,83,73,30.16,29.96,7,2,15,0.00
2013-2-4,35.3,27.1,17.7,35.0,24.7,16.0,98,91,74,30.15,29.87,7,2,14,0.00
2013-2-5,38.3,35.2,29.8,35.0,32.5,28.0,98,90,82,30.03,29.86,6,1,10,0.05
2013-2-6,38.1,34.9,30.9,33.0,30.0,27.0,86,82,73,30.27,30.03,5,2,10,0.00
2013-2-7,61.4,45.9,31.3,39.0,34.1,28.0,87,66,41,30.22,29.83,7,3,11,0.00
2013-2-8,51.7,38.4,32.0,46.0,33.2,25.0,96,82,57,30.32,29.80,9,3,19,0.10
2013-2-9,42.1,33.2,25.0,25.0,21.3,18.0,81,63,41,30.45,30.24,6,2,9,0.00
2013-2-10,56.3,43.9,33.6,45.0,30.8,21.0,88,62,37,30.25,29.82,19,6,22,0.01
2013-2-11,52.9,48.6,40.3,51.0,37.2,28.0,95,67,47,30.05,29.79,19,6,28,0.00
2013-2-12,50.0,40.8,31.4,30.0,27.6,25.0,85,62,39,30.14,29.91,6,2,13,0.00
2013-2-13,40.5,33.3,30.4,33.0,29.6,27.0,97,87,59,29.92,29.77,6,1,10,0.02
2013-2-14,53.2,40.3,30.1,40.0,34.1,29.0,97,81,54,30.01,29.85,11,3,22,0.17
2013-2-15,42.0,35.2,27.3,33.0,29.1,23.0,89,79,59,30.16,30.00,7,1,12,0.00
2013-2-16,29.6,24.9,20.3,23.0,17.7,11.0,96,75,52,30.16,30.06,11,2,12,0.00
2013-2-17,33.1,23.7,15.1,15.0,10.0,6.0,89,59,33,30.28,30.14,6,1,8,0.00
2013-2-18,59.4,42.1,24.8,40.0,24.9,8.0,76,51,42,30.25,29.78,26,7,33,0.01
2013-2-19,46.6,34.2,25.3,42.0,27.6,16.0,96,77,60,30.13,29.68,14,6,27,0.13
2013-2-20,30.8,22.1,21.1,17.0,1.4,-99.9,79,58,51,30.33,30.13,9,-114,14,0.00
2013-2-21,31.7,26.0,19.3,26.0,19.1,14.0,87,75,67,30.38,30.09,9,3,17,0.00
2013-2-22,45.7,37.3,29.7,41.0,35.2,27.0,98,92,84,30.09,29.92,8,3,12,0.01
2013-2-23,46.1,38.3,33.4,35.0,29.6,26.0,96,73,48,30.01,29.91,5,1,9,0.00
2013-2-24,44.1,34.3,26.5,27.0,24.8,23.0,87,70,49,30.17,29.95,8,2,9,0.00
2013-2-25,46.4,36.9,27.3,28.0,24.3,22.0,80,62,45,30.18,29.91,11,4,15,0.00
2013-2-26,50.8,43.2,36.9,49.0,38.2,24.0,97,84,55,29.90,29.37,15,6,18,0.49
2013-2-27,41.3,37.4,33.6,40.0,35.0,31.0,96,91,80,29.74,29.53,12,5,17,0.01
2013-2-28,36.6,34.6,32.3,34.0,32.1,30.0,96,91,86,29.96,29.71,11,2,14,0.02
2013-3-1,36.3,34.1,30.7,34.0,32.3,26.0,98,93,81,30.04,29.93,5,1,10,0.05
2013-3-2,30.4,28.3,27.1,26.0,23.4,21.0,89,82,74,30.10,30.02,6,1,11,0.00
2013-3-3,31.6,28.3,24.7,26.0,22.4,19.0,88,79,69,30.11,30.06,3,1,10,0.00
2013-3-4,43.3,32.3,19.0,26.0,22.2,18.0,96,70,44,30.20,30.02,9,2,11,0.01
2013-3-5,39.4,37.1,30.7,39.0,32.4,25.0,98,84,56,30.02,29.57,7,4,16,0.33
2013-3-6,32.5,30.3,28.3,31.0,29.5,28.0,98,97,95,30.28,29.65,10,2,11,0.00
2013-3-7,38.3,33.6,30.8,34.0,31.1,28.0,97,90,81,30.40,30.26,3,0,7,0.19
2013-3-8,44.3,36.0,28.2,29.0,26.8,24.0,88,71,48,30.48,30.39,6,2,8,0.02
2013-3-9,58.7,45.4,32.2,36.0,31.7,28.0,85,62,41,30.39,30.05,8,4,12,0.00
2013-3-10,68.7,60.6,53.5,40.0,35.1,33.0,49,39,28,30.05,29.83,14,6,17,0.02
2013-3-11,61.0,49.5,38.9,54.0,44.7,34.0,97,84,45,29.85,29.58,17,5,22,0.86
2013-3-12,45.3,38.9,34.8,34.0,30.3,28.0,84,72,56,30.06,29.86,10,3,16,0.00
2013-3-13,36.3,31.0,27.7,33.0,24.9,18.0,95,79,62,30.34,30.02,9,3,16,0.00
2013-3-14,45.6,33.7,22.3,23.0,20.4,16.0,93,63,31,30.38,30.20,6,1,10,0.00
2013-3-15,54.0,42.2,31.7,39.0,33.5,24.0,89,73,57,30.20,29.79,6,2,9,0.00
2013-3-16,63.0,49.6,38.7,53.0,43.7,34.0,94,81,63,30.01,29.63,14,4,18,0.24
2013-3-17,38.5,35.2,32.8,34.0,32.3,30.0,95,89,83,30.14,29.99,8,3,10,0.15
2013-3-18,49.5,41.7,34.8,49.0,40.5,34.0,99,95,79,30.00,29.64,10,4,16,0.70
2013-3-19,46.1,38.7,30.3,35.0,23.6,14.0,91,59,28,30.12,29.85,14,4,29,0.00
2013-3-20,39.7,33.5,25.3,23.0,18.2,12.0,83,55,39,30.12,29.95,11,3,19,0.00
2013-3-21,35.0,26.9,21.1,16.0,12.6,10.0,74,56,39,30.07,29.97,7,1,11,0.00
2013-3-22,45.4,32.4,20.3,22.0,18.1,15.0,92,60,33,30.11,30.02,4,1,8,0.00
2013-3-23,54.5,43.1,34.6,25.0,22.0,18.0,58,44,30,30.08,29.88,7,2,13,0.00
2013-3-24,41.2,35.7,32.7,34.0,29.4,24.0,98,80,51,29.88,29.40,12,4,18,0.18
2013-3-25,34.5,32.7,30.1,34.0,31.9,30.0,98,96,93,29.96,29.43,10,2,12,0.12
2013-3-26,39.6,35.1,32.1,34.0,30.7,26.0,95,85,67,30.25,29.96,7,2,14,0.19
2013-3-27,45.0,37.3,29.8,32.0,27.5,25.0,88,69,50,30.33,30.25,7,2,10,0.00
2013-3-28,51.3,40.2,28.8,28.0,25.4,23.0,84,58,38,30.37,30.29,6,1,9,0.00
2013-3-29,56.7,44.4,29.5,34.0,29.6,26.0,91,59,35,30.34,30.20,5,1,9,0.00
2013-3-30,61.4,49.7,37.1,36.0,33.1,30.0,78,55,35,30.24,29.95,9,2,11,0.00
2013-3-31,57.8,50.6,45.0,48.0,42.9,36.0,97,76,56,29.94,29.77,8,2,17,0.01
2013-4-1,50.7,44.2,36.7,42.0,28.8,19.0,89,57,35,30.12,29.79,8,2,14,0.00
2013-4-2,48.4,38.1,27.2,24.0,18.4,15.0,80,47,28,30.27,30.12,7,1,12,0.00
2013-4-3,48.4,38.9,30.2,22.0,16.1,14.0,59,41,26,30.42,30.27,7,2,11,0.00
2013-4-4,54.8,43.4,33.5,28.0,20.3,16.0,51,41,28,30.34,30.00,8,3,9,0.00
2013-4-5,64.5,49.3,33.2,37.0,29.8,26.0,80,50,25,30.13,29.98,9,1,11,0.00
2013-4-6,68.1,55.8,39.9,39.0,31.1,22.0,59,40,29,30.20,29.92,11,5,15,0.00
2013-4-7,73.4,64.4,58.4,57.0,47.5,37.0,91,56,42,29.98,29.87,13,5,18,0.28
2013-4-8,72.8,64.5,56.1,57.0,54.1,48.0,94,70,53,29.99,29.87,13,4,25,0.00
2013-4-9,80.8,71.0,59.8,61.0,56.9,53.0,80,63,42,30.03,29.90,19,5,23,0.00
2013-4-10,83.4,74.3,66.7,65.0,61.0,58.0,77,64,47,29.95,29.74,17,6,25,0.00
2013-4-11,73.7,64.6,58.4,64.0,59.7,57.0,98,85,62,29.78,29.52,10,2,15,0.67
2013-4-12,58.3,48.4,41.1,58.0,41.6,34.0,99,79,58,29.92,29.50,11,3,21,0.10
2013-4-13,58.1,43.8,36.4,39.0,35.2,33.0,89,74,45,30.02,29.94,10,2,18,0.00
2013-5-5,53.0,51.7,51.2,53.0,50.3,49.0,98,95,93,29.93,29.89,7,3,8,1.10
2013-5-6,62.2,57.7,53.4,57.0,55.2,53.0,98,92,81,29.93,29.87,7,2,10,0.60
2013-5-7,73.3,61.5,54.5,61.0,57.5,54.0,98,88,58,29.96,29.89,5,1,8,0.03
2013-5-8,77.9,63.5,54.6,62.0,58.1,54.0,99,85,47,29.99,29.90,8,1,11,0.12
2013-5-9,82.9,67.5,55.3,66.0,58.7,55.0,100,77,41,30.01,29.92,4,0,7,0.00
2013-5-10,69.8,64.3,61.5,64.0,61.2,59.0,99,90,72,29.92,29.79,6,1,21,0.71
2013-5-11,62.0,54.7,47.0,62.0,51.9,42.0,100,90,75,29.99,29.83,5,1,14,0.15
2013-5-12,58.2,48.7,38.9,44.0,36.7,32.0,99,68,39,30.13,29.99,7,1,13,0.00
2013-5-13,64.6,52.2,39.6,42.0,36.0,31.0,96,58,31,30.18,30.10,5,1,11,0.00
2013-5-14,81.2,62.3,43.5,60.0,47.7,36.0,81,61,43,30.15,29.82,8,2,18,0.00
2013-5-15,87.5,76.4,64.9,64.0,59.6,55.0,82,58,38,29.89,29.79,11,3,20,0.00
2013-5-16,76.9,67.7,62.9,67.0,60.9,54.0,99,80,63,29.96,29.82,8,1,8,0.33
2013-5-17,83.2,67.5,59.5,70.0,64.4,60.0,100,91,62,30.04,29.96,4,0,7,0.08
2013-5-18,80.2,68.9,63.7,71.0,65.9,63.0,98,91,66,30.03,29.93,3,0,6,0.30
2013-5-19,86.1,73.2,63.8,72.0,67.3,64.0,100,84,53,29.98,29.86,5,0,7,0.00
2013-5-20,84.4,75.5,67.0,73.0,70.1,67.0,98,84,65,29.98,29.86,6,1,10,0.00
2013-5-21,85.6,74.4,66.4,72.0,67.4,64.0,95,80,54,29.92,29.78,6,1,13,0.00
2013-5-22,80.7,69.5,61.8,68.0,64.6,61.0,99,85,63,29.84,29.71,6,1,16,0.28
2013-5-23,70.5,64.2,53.9,65.0,59.8,49.0,100,87,66,30.04,29.78,8,1,15,0.02
2013-5-24,65.7,56.4,48.1,48.0,42.7,39.0,86,62,42,30.30,30.04,10,2,13,0.00
2013-5-25,66.6,56.7,44.5,49.0,44.4,40.0,87,65,44,30.38,30.21,4,0,8,0.00
2013-5-26,73.2,63.1,54.8,53.0,48.5,44.0,82,60,41,30.29,30.16,3,0,7,0.00
2013-5-27,84.2,69.5,53.3,64.0,55.2,47.0,93,62,43,30.18,29.94,5,1,16,0.12
2013-5-28,81.8,75.2,67.2,69.0,63.1,60.0,83,67,52,30.01,29.91,10,2,19,0.00
2013-5-29,86.5,77.0,67.8,67.0,63.8,60.0,80,65,47,30.06,29.96,8,2,20,0.00
2013-5-30,88.4,78.0,68.5,72.0,67.4,64.0,85,71,56,30.12,29.97,4,1,13,0.00
2013-5-31,83.7,73.0,67.6,70.0,67.2,64.0,99,83,64,30.04,29.92,13,2,19,0.51
2013-6-1,81.6,73.5,68.2,72.0,69.0,66.0,99,86,69,29.95,29.76,9,2,17,0.02
2013-6-2,80.7,71.7,65.6,69.0,63.9,61.0,95,78,54,29.88,29.80,7,1,12,0.00
2013-6-3,73.1,65.3,57.6,62.0,55.6,53.0,87,72,55,30.03,29.88,5,1,12,0.00
2013-6-4,79.1,65.9,54.3,53.0,48.2,44.0,89,57,29,30.12,30.02,3,1,7,0.00
2013-6-5,86.5,69.9,57.1,67.0,58.3,48.0,95,69,47,30.05,29.82,2,0,5,0.02
2013-6-6,74.6,65.8,62.7,69.0,60.4,-99.9,99,90,75,29.84,29.74,5,-34,7,0.01
2013-6-7,77.5,66.9,58.4,62.0,60.1,58.0,98,81,56,29.85,29.77,6,1,8,0.00
2013-6-8,80.2,68.9,57.1,65.0,60.6,55.0,94,76,54,30.00,29.86,4,0,6,0.00
2013-6-9,83.0,71.8,62.7,69.0,65.2,62.0,96,81,57,30.05,29.88,4,1,5,0.00
2013-6-10,77.0,69.0,64.6,70.0,66.4,64.0,100,92,75,29.89,29.76,6,1,20,1.74
2013-6-11,86.5,74.0,62.7,70.0,66.2,63.0,100,79,51,29.95,29.84,4,1,9,0.00
2013-6-12,91.0,79.4,69.7,79.0,72.7,67.0,92,80,60,29.91,29.71,7,1,14,0.00
2013-6-13,80.7,74.9,67.6,75.0,65.1,-99.9,95,74,55,29.87,29.56,9,-10,22,0.01
2013-6-14,81.7,70.4,57.6,63.0,58.9,55.0,92,69,46,30.02,29.88,10,1,10,0.01
2013-6-15,83.6,72.4,59.1,67.0,62.4,57.0,95,73,53,30.10,29.93,5,0,10,0.00
2013-6-16,79.0,71.2,67.2,72.0,67.7,64.0,97,88,74,30.01,29.93,3,0,6,0.12
2013-6-17,89.3,75.8,65.4,74.0,68.8,65.0,100,81,49,29.96,29.85,5,0,7,0.13
2013-6-18,85.8,71.6,65.7,72.0,66.7,64.0,96,85,58,29.95,29.81,5,1,8,0.11
2013-6-19,83.9,71.0,58.2,64.0,59.3,56.0,96,69,43,30.09,29.95,5,1,8,0.11
2013-6-20,88.7,74.3,61.1,67.0,60.4,56.0,85,64,41,30.17,30.09,4,0,9,0.00
2013-6-21,88.4,77.3,64.8,70.0,64.9,58.0,86,67,48,30.18,30.09,6,1,9,0.00
2013-6-22,90.1,78.0,67.6,75.0,69.7,66.0,95,77,55,30.15,30.02,5,0,9,0.00
2013-6-23,89.6,76.8,66.7,75.0,68.8,66.0,99,78,50,30.12,30.02,6,0,10,0.00
2013-6-24,87.0,75.9,67.0,75.0,69.7,66.0,96,82,61,30.11,30.00,5,1,10,0.00
2013-6-25,90.1,78.2,67.6,78.0,70.7,-99.9,100,81,59,30.05,29.86,8,-9,13,0.00
2013-6-26,86.4,74.9,67.6,77.0,71.0,66.0,99,88,72,29.91,29.78,7,1,26,0.20
2013-6-27,87.7,80.4,70.8,77.0,73.3,71.0,100,80,65,29.75,29.67,4,1,11,0.08
2013-6-28,87.7,75.0,65.0,72.0,65.7,-99.9,99,77,44,29.68,29.55,18,-9,20,0.04
2013-6-29,77.3,66.9,63.0,71.0,64.4,-99.9,100,94,73,29.64,29.55,3,-10,8,1.14
2013-6-30,85.3,70.9,63.0,70.0,66.2,63.0,100,87,51,29.79,29.63,4,1,10,0.01
2013-7-1,78.5,70.3,64.7,71.0,67.5,64.0,99,91,75,29.89,29.77,10,1,10,0.58
2013-7-2,83.3,72.6,64.2,72.0,68.4,64.0,100,87,64,29.99,29.87,4,1,8,0.00
2013-7-3,81.4,74.2,67.8,73.0,70.2,68.0,99,87,69,30.09,29.99,2,0,8,0.00
2013-7-4,72.2,69.9,67.4,71.0,69.0,67.0,100,97,87,30.13,30.04,3,0,5,1.27
2013-7-5,76.1,70.2,65.5,73.0,69.6,66.0,100,98,90,30.13,30.06,2,0,8,0.46
2013-7-6,76.7,70.5,66.9,74.0,70.1,67.0,100,98,89,30.11,30.02,4,1,12,1.39
2013-7-7,85.8,73.3,66.2,73.0,68.9,66.0,100,87,62,30.10,30.00,3,0,6,0.00
2013-7-8,86.9,75.5,66.4,75.0,70.7,66.0,100,86,64,30.11,30.01,4,1,8,0.00
2013-7-9,90.0,79.5,73.1,79.0,75.1,72.0,98,87,66,30.06,29.94,4,1,11,0.16
2013-7-10,89.6,77.7,69.1,80.0,74.5,69.0,99,90,70,29.97,29.79,6,1,10,0.43
2013-7-11,84.0,73.1,66.9,74.0,67.9,60.0,100,85,61,29.98,29.89,5,1,12,0.00
2013-7-12,81.8,71.2,61.5,64.0,60.7,58.0,89,71,52,30.06,29.99,6,2,16,0.00
2013-7-13,86.3,75.0,65.0,71.0,66.2,62.0,90,75,56,30.10,30.02,8,1,8,0.00
2013-7-14,92.9,80.1,70.5,77.0,72.6,68.0,94,79,59,30.18,30.08,3,1,5,0.01
2013-7-15,95.1,81.6,71.4,75.0,72.9,70.0,96,77,51,30.27,30.18,2,0,6,0.00
2013-7-16,95.2,83.3,72.2,77.0,73.5,71.0,97,74,49,30.29,30.21,4,0,5,0.00
2013-7-17,94.9,82.2,73.9,81.0,75.8,73.0,98,82,57,30.27,30.14,5,0,10,0.10
2013-7-18,95.8,84.3,74.0,79.0,75.7,73.0,97,77,49,30.16,29.98,2,0,6,0.00
2013-7-19,91.3,80.8,74.6,79.0,75.9,71.0,100,86,62,30.01,29.86,5,1,11,0.00
2013-7-20,89.0,78.1,73.0,77.0,73.4,69.0,98,86,63,29.90,29.81,5,2,14,0.00
2013-7-21,89.5,77.5,70.0,76.0,71.9,68.0,98,84,56,29.93,29.84,3,0,6,0.16
2013-7-22,80.7,72.6,69.3,75.0,72.0,69.0,100,98,82,29.88,29.73,4,0,8,1.34
2013-7-23,87.2,75.3,69.4,77.0,72.6,69.0,100,92,70,29.80,29.70,10,1,12,0.28
2013-7-24,79.0,69.6,60.0,70.0,63.1,58.0,96,81,59,29.96,29.78,4,2,11,0.00
2013-7-25,79.9,68.5,56.8,63.0,58.3,55.0,96,72,45,30.05,29.96,4,1,8,0.00
2013-7-26,81.6,70.2,57.7,66.0,62.4,57.0,98,78,55,30.07,29.95,4,0,9,0.00
2013-7-27,76.0,68.3,64.8,69.0,65.5,60.0,100,91,74,29.95,29.82,7,1,10,0.16
2013-7-28,75.1,65.2,54.7,61.0,55.2,51.0,98,72,48,30.04,29.88,7,1,9,0.00
2013-7-29,81.7,67.4,55.2,62.0,58.4,55.0,99,76,49,30.16,30.04,3,0,6,0.00
2013-7-30,81.3,69.8,58.9,69.0,63.4,58.0,98,81,54,30.20,30.09,4,0,5,0.00
2013-7-31,77.3,70.1,64.3,71.0,67.2,64.0,100,91,78,30.10,29.92,3,0,8,0.11
2013-8-1,84.4,73.9,68.1,70.0,65.9,57.0,100,78,51,29.97,29.89,4,1,7,0.00
2013-8-2,83.5,71.4,59.6,68.0,64.2,59.0,100,79,55,29.99,29.93,5,1,10,0.00
2013-8-3,82.6,73.5,68.4,73.0,68.3,64.0,97,84,67,29.99,29.93,6,0,10,0.07
2013-8-4,79.0,70.0,61.0,66.0,59.7,57.0,93,71,47,30.09,29.99,6,1,11,0.00
2013-8-5,83.0,69.2,57.7,65.0,59.7,56.0,96,74,44,30.09,29.95,4,0,9,0.00
2013-8-6,83.4,73.4,66.6,72.0,65.5,59.0,92,76,66,29.96,29.89,3,0,6,0.00
2013-8-7,85.9,76.1,69.2,77.0,72.9,69.0,100,90,75,29.92,29.84,4,0,6,0.00
2013-8-8,85.6,75.9,70.8,79.0,74.1,71.0,100,94,77,29.92,29.85,4,0,6,0.91
2013-8-9,83.9,75.0,69.0,76.0,72.2,69.0,100,92,72,29.99,29.87,6,1,12,0.95
2013-8-10,86.8,76.3,69.3,75.0,71.5,69.0,100,86,62,30.07,29.99,4,0,6,0.02
2013-8-11,89.4,78.3,71.0,77.0,71.1,66.0,99,80,56,30.05,29.98,3,0,6,0.00
2013-8-12,86.1,75.0,66.1,75.0,70.0,65.0,100,85,64,30.04,29.84,4,0,8,0.00
2013-8-13,81.1,73.0,61.8,73.0,66.1,53.0,99,80,60,30.01,29.82,8,1,14,0.00
2013-8-14,73.3,62.2,53.5,55.0,52.2,50.0,93,72,47,30.14,30.02,7,1,8,0.00
2013-8-15,75.9,63.8,52.8,59.0,55.2,51.0,96,75,53,30.16,30.06,3,0,7,0.00
2013-8-16,80.1,67.7,55.9,63.0,58.0,54.0,95,73,50,30.13,30.08,4,1,5,0.00
2013-8-17,86.8,72.0,60.7,67.0,61.6,56.0,88,71,46,30.14,30.08,4,1,6,0.00
2013-8-18,82.1,71.0,61.8,70.0,65.4,61.0,97,83,63,30.14,30.06,5,0,6,0.00
2013-8-19,88.3,73.6,63.3,72.0,65.7,63.0,100,79,47,30.11,30.03,5,0,7,0.00
2013-8-20,87.1,75.3,64.8,73.0,67.4,65.0,99,78,51,30.14,30.05,4,0,4,0.00
2013-8-21,85.9,75.4,67.7,75.0,70.2,66.0,96,84,63,30.13,30.03,4,0,6,0.00
2013-8-22,89.2,74.3,66.7,78.0,70.8,66.0,100,90,56,30.09,29.99,4,0,18,0.29
2013-8-23,86.3,74.3,67.1,74.0,68.7,65.0,100,84,54,30.10,30.00,3,0,8,0.10
2013-8-24,87.9,74.9,61.5,70.0,64.2,60.0,94,71,46,30.23,30.10,4,1,5,0.00
2013-8-25,89.5,74.6,61.8,68.0,63.0,60.0,96,70,40,30.30,30.19,3,0,6,0.00
2013-8-26,91.0,75.9,64.5,75.0,69.0,64.0,99,81,52,30.23,30.05,6,0,7,0.00
2013-8-27,90.5,79.2,70.0,78.0,74.0,70.0,99,85,63,30.05,29.92,4,1,8,0.00
2013-8-28,94.0,81.2,73.2,77.0,74.7,73.0,100,83,55,29.94,29.83,4,1,13,0.10
2013-8-29,86.7,77.4,70.4,76.0,72.2,70.0,99,85,64,30.00,29.91,3,1,6,0.00
2013-8-30,90.8,77.5,67.5,75.0,70.8,68.0,100,82,54,29.96,29.81,4,0,6,0.00
2013-8-31,90.0,75.3,67.6,78.0,71.6,67.0,99,89,64,29.89,29.71,9,1,19,1.53
2013-9-1,85.8,74.4,66.5,75.0,70.9,67.0,100,89,68,29.82,29.73,5,0,8,0.01
2013-9-2,89.4,78.0,71.1,76.0,71.3,63.0,100,81,57,29.84,29.75,6,1,10,0.00
2013-9-3,76.2,67.9,59.8,63.0,59.1,56.0,94,75,51,30.04,29.84,7,1,10,0.00
2013-9-4,83.2,68.1,56.1,65.0,60.5,56.0,99,79,52,30.13,30.04,5,0,7,0.00
2013-9-5,87.4,72.4,59.3,69.0,62.9,58.0,100,75,43,30.16,30.09,4,1,7,0.00
2013-9-6,83.0,68.9,56.0,59.0,54.8,52.0,86,63,41,30.21,30.08,4,0,4,0.00
2013-9-7,86.4,71.4,57.2,71.0,62.7,53.0,97,75,54,30.08,29.93,6,0,8,0.00
2013-9-8,89.9,77.8,67.4,74.0,70.0,67.0,99,79,53,29.96,29.89,4,0,5,0.00
2013-9-9,91.1,78.9,69.0,75.0,71.3,69.0,99,79,54,30.01,29.93,6,1,11,0.00
2013-9-10,92.9,80.7,72.5,78.0,74.2,71.0,94,81,60,30.10,29.99,6,1,10,0.00
2013-9-11,92.1,79.8,71.1,78.0,73.5,71.0,99,82,56,30.13,29.99,5,1,7,0.00
2013-9-12,81.1,74.0,68.5,74.0,70.7,66.0,100,90,71,29.99,29.84,4,1,10,0.05
2013-9-13,68.3,60.7,54.3,65.0,52.0,47.0,92,74,54,30.06,29.87,10,2,14,0.00
2013-9-14,74.3,58.7,47.3,50.0,47.3,44.0,94,69,41,30.17,30.06,4,1,6,0.00
2013-9-15,77.9,63.4,49.2,63.0,55.0,48.0,97,76,52,30.14,30.01,6,1,14,0.00
2013-9-16,73.4,64.0,58.7,63.0,58.9,54.0,99,84,62,30.24,30.04,3,1,7,0.10
2013-9-17,77.7,64.1,52.2,60.0,54.7,51.0,94,74,48,30.30,30.14,5,1,6,0.00
2013-9-18,80.1,66.6,59.3,69.0,61.9,55.0,98,85,52,30.14,30.05,5,0,5,0.01
2013-9-19,81.2,70.2,64.6,72.0,67.8,65.0,100,92,71,30.07,29.95,7,1,10,0.15
2013-9-20,87.4,73.9,66.8,73.0,69.6,67.0,100,88,60,29.98,29.76,6,1,12,1.31
2013-9-21,74.5,66.3,59.3,70.0,60.6,52.0,100,84,50,29.84,29.66,5,1,10,1.86
2013-9-22,69.4,59.1,49.7,53.0,49.7,47.0,94,73,49,30.00,29.85,6,1,11,0.00
2013-9-23,71.9,59.5,48.2,53.0,49.5,46.0,94,71,48,30.10,30.00,4,1,6,0.00
2013-9-24,78.6,61.1,47.8,62.0,53.5,46.0,95,78,54,30.07,29.90,2,0,4,0.00
2013-9-25,75.3,63.4,55.9,61.0,55.4,52.0,91,77,51,29.91,29.85,3,1,6,0.00
2013-9-26,81.6,64.4,50.6,64.0,56.6,50.0,99,78,51,30.04,29.90,2,0,6,0.00
2013-9-27,82.3,67.2,53.2,61.0,54.6,51.0,95,68,37,30.15,30.04,4,0,6,0.00
2013-9-28,82.2,66.9,52.9,62.0,57.1,52.0,97,73,46,30.17,30.04,7,0,9,0.00
2013-9-29,72.2,63.4,58.2,64.0,59.8,57.0,98,89,71,30.04,29.99,8,1,9,0.00
2013-9-30,75.0,66.1,61.1,65.0,62.2,60.0,96,88,70,30.02,29.93,3,0,5,0.00
2013-10-1,79.2,67.4,59.0,67.0,63.1,59.0,100,87,63,30.08,29.99,6,0,9,0.00
2013-10-2,81.6,68.6,60.7,72.0,66.2,61.0,100,92,72,30.10,30.01,4,0,6,0.01
2013-10-3,79.5,71.1,67.6,74.0,69.5,68.0,100,95,77,30.07,29.98,4,1,6,0.16
2013-10-4,85.5,73.0,63.9,73.0,67.9,64.0,100,85,58,30.07,29.99,6,1,11,0.01
2013-10-5,80.0,71.2,68.1,73.0,69.2,67.0,100,93,77,30.03,29.92,7,1,9,0.80
2013-10-6,72.7,64.3,53.2,71.0,64.0,53.0,100,99,93,29.94,29.69,6,1,16,1.86
2013-10-7,63.8,53.8,45.7,53.0,48.3,45.0,100,83,58,30.15,29.82,5,1,11,0.00
2013-10-8,69.8,56.3,44.6,53.0,48.0,44.0,100,76,46,30.27,30.15,3,0,7,0.01
2013-10-9,74.6,61.1,49.6,56.0,48.8,46.0,89,67,39,30.22,30.14,2,0,5,0.00
2013-10-10,76.1,60.2,45.6,56.0,48.2,44.0,97,68,39,30.18,30.05,2,0,6,0.00
2013-10-11,80.8,63.6,49.6,59.0,53.1,48.0,98,72,44,30.09,30.00,3,0,5,0.00
2013-10-12,79.8,65.8,54.3,64.0,58.3,51.0,98,78,48,30.10,30.01,3,0,6,0.00
2013-10-13,73.8,63.6,55.6,66.0,58.4,48.0,100,84,64,30.27,30.10,6,1,11,0.00
2013-10-14,73.9,60.6,47.8,57.0,49.8,44.0,92,70,45,30.31,30.15,4,1,8,0.00
2013-10-15,73.7,64.4,55.6,66.0,61.1,55.0,99,89,74,30.17,29.93,9,1,11,0.00
2013-10-16,65.9,62.2,53.0,63.0,60.1,50.0,100,93,80,29.94,29.88,4,1,10,0.16
2013-10-17,55.1,50.3,45.9,52.0,48.0,45.0,97,92,83,29.99,29.87,3,0,10,0.16
2013-10-18,65.4,52.3,42.8,54.0,46.7,43.0,100,83,54,30.06,29.95,8,1,11,0.01
2013-10-19,50.6,46.4,40.5,48.0,45.2,40.0,99,95,85,30.01,29.83,3,0,9,0.21
2013-10-20,62.2,49.0,38.1,47.0,42.3,38.0,99,80,54,30.07,30.00,7,2,16,0.01
2013-10-21,66.5,54.4,42.5,50.0,43.7,40.0,91,69,43,30.03,29.90,10,2,14,0.00
2013-10-22,54.7,45.5,34.5,50.0,36.5,32.0,97,73,44,30.05,29.85,4,1,12,0.15
2013-10-23,45.6,42.1,37.9,41.0,37.8,33.0,97,85,70,30.05,29.73,7,1,15,0.07
2013-10-24,46.3,40.3,37.4,37.0,35.1,33.0,94,82,62,30.28,30.05,5,1,10,0.00
2013-10-25,50.6,39.9,30.9,35.0,30.7,28.0,93,72,44,30.45,30.28,4,1,9,0.00
2013-10-26,54.1,42.1,30.4,40.0,33.7,28.0,91,74,56,30.30,29.97,13,2,19,0.00
2013-10-27,59.9,48.2,36.7,44.0,38.2,35.0,98,71,46,30.11,30.05,4,0,7,0.00
2013-10-28,65.9,49.9,35.4,45.0,38.1,34.0,97,68,35,30.28,30.09,4,0,7,0.00
2013-10-29,58.4,50.5,38.7,51.0,44.0,36.0,90,79,63,30.34,30.21,2,0,4,0.00
2013-10-30,64.3,58.5,52.8,64.0,58.1,51.0,100,98,90,30.20,30.01,3,0,9,0.17
2013-10-31,65.9,63.2,60.1,64.0,60.6,58.0,99,91,82,30.01,29.37,12,4,30,0.79
2013-11-1,64.2,57.3,49.7,63.0,50.1,46.0,98,78,53,29.73,29.37,14,3,22,0.16
2013-11-2,57.2,50.5,43.5,47.0,41.7,37.0,89,73,52,30.08,29.73,9,1,13,0.00
2013-11-3,56.6,46.3,40.0,44.0,39.3,37.0,97,78,52,30.38,30.09,5,0,6,0.00
2013-11-4,59.3,49.6,40.2,45.0,39.7,34.0,81,69,58,30.41,30.31,5,2,12,0.00
2013-11-5,62.4,55.9,51.5,45.0,42.6,38.0,74,62,52,30.41,30.22,4,1,7,0.00
2013-11-6,67.5,57.7,47.7,60.0,50.2,38.0,99,78,55,30.22,29.96,17,3,23,0.48
2013-11-7,50.4,44.0,39.3,46.0,35.4,29.0,97,74,45,30.25,30.02,10,1,13,0.07
2013-11-8,52.3,41.5,30.8,35.0,31.5,29.0,96,70,45,30.39,30.22,5,1,13,0.00
2013-11-9,61.7,49.6,37.8,38.0,33.7,29.0,74,56,37,30.26,30.05,17,4,23,0.00
2013-11-10,53.6,46.4,36.0,41.0,33.7,27.0,89,63,40,30.35,30.11,7,1,16,0.00
2013-11-11,61.6,45.1,30.6,44.0,33.9,25.0,96,71,26,30.32,30.09,7,2,17,0.05
2013-11-12,38.5,30.8,26.4,37.0,24.8,21.0,97,80,57,30.64,30.24,9,2,17,0.02
2013-11-13,41.6,31.4,22.5,29.0,22.6,18.0,97,73,41,30.67,30.44,10,2,11,0.02
2013-11-14,56.1,41.0,28.4,27.0,22.7,19.0,78,52,24,30.43,30.19,9,3,15,0.00
2013-11-15,53.1,45.7,38.1,45.0,31.6,22.0,92,60,44,30.20,30.11,7,3,16,0.08
2013-11-16,60.5,53.6,47.8,56.0,51.1,45.0,97,91,85,30.15,29.92,10,4,15,0.00
2013-11-17,64.6,59.7,54.2,64.0,57.5,43.0,99,92,67,29.92,29.52,17,7,33,1.49
2013-11-18,53.7,48.3,39.2,43.0,36.6,29.0,82,65,47,30.19,29.79,9,3,22,0.00
2013-11-19,41.2,36.1,30.6,31.0,29.1,28.0,89,76,66,30.35,30.18,8,2,9,0.00
2013-11-20,52.3,41.2,31.1,35.0,30.5,26.0,81,67,50,30.34,30.23,6,3,9,0.00
2013-11-21,56.0,50.4,44.7,50.0,39.6,32.0,90,67,58,30.34,30.20,7,2,9,0.02
2013-11-22,54.5,49.3,38.7,55.0,47.1,33.0,100,92,78,30.35,30.16,7,2,15,0.11
2013-11-23,40.8,32.7,23.1,33.0,24.4,15.0,94,73,40,30.57,30.33,11,2,18,0.00
2013-11-24,29.0,22.3,16.1,15.0,11.7,9.0,78,64,53,30.72,30.56,9,1,16,0.00
2013-11-25,41.7,30.7,19.9,30.0,18.5,13.0,89,62,43,30.57,30.23,12,4,15,0.00
2013-11-26,34.1,32.6,31.3,33.0,31.9,30.0,98,97,90,30.24,29.93,2,0,6,0.01
2013-11-27,32.1,27.7,22.2,30.0,22.1,16.0,94,80,67,30.32,29.92,8,2,15,0.00
2013-11-28,34.3,26.0,18.6,23.0,18.6,14.0,86,74,59,30.48,30.32,10,2,15,0.00
2013-11-29,41.4,30.4,20.4,28.0,23.5,19.0,95,77,56,30.65,30.48,5,1,7,0.03
2013-11-30,52.6,39.3,27.6,34.0,28.6,23.0,87,67,47,30.53,30.20,7,2,13,0.03
2013-12-1,52.5,45.2,38.0,39.0,34.6,29.0,73,67,59,30.20,29.96,6,2,10,0.00
2013-12-2,53.5,45.8,39.9,42.0,38.8,36.0,86,77,65,29.96,29.78,3,1,6,0.00
2013-12-3,53.6,47.5,40.7,48.0,44.0,38.0,95,88,81,29.88,29.79,7,2,13,0.00
2013-12-4,63.5,56.6,49.2,59.0,53.5,47.0,96,89,83,29.87,29.72,11,5,16,0.00
2013-12-5,63.3,50.1,33.0,61.0,47.9,32.0,99,92,83,30.13,29.76,8,2,15,0.91
2013-12-6,33.2,29.8,26.7,32.0,29.0,26.0,98,97,96,30.40,30.11,5,1,13,0.01
2013-12-7,28.3,24.6,20.0,26.0,22.6,17.0,98,92,85,30.61,30.39,3,1,7,0.00
2013-12-8,32.2,25.6,20.2,32.0,23.9,17.0,99,93,86,30.54,30.05,6,2,8,0.00
2013-12-9,33.0,30.0,25.9,33.0,28.4,24.0,99,93,87,30.25,30.04,9,2,13,0.00
2013-12-10,30.3,24.6,20.9,24.0,20.3,17.0,95,84,66,30.39,30.16,10,2,20,0.00
2013-12-11,36.8,25.2,16.2,27.0,20.2,14.0,95,82,63,30.53,30.32,9,2,15,0.01
2013-12-12,26.2,19.2,11.1,14.0,10.0,4.0,86,69,44,30.59,30.38,10,2,14,0.00
2013-12-13,40.8,30.4,19.7,31.0,19.8,14.0,84,66,47,30.39,30.17,7,2,11,0.09
2013-12-14,40.1,37.0,34.0,40.0,34.8,27.0,99,92,68,30.17,29.71,11,4,15,0.46
2013-12-15,33.8,29.5,28.2,32.0,25.8,23.0,95,86,73,30.14,29.88,10,3,15,0.00
2013-12-16,35.3,31.7,27.3,33.0,30.1,24.0,98,93,85,30.14,30.02,5,1,7,0.01
2013-12-17,35.9,32.3,29.7,34.0,29.4,26.0,95,89,81,30.20,30.00,5,1,13,0.00
2013-12-18,39.1,31.7,25.5,26.0,22.4,20.0,95,71,48,30.30,30.09,8,3,12,0.00
2013-12-19,57.5,47.0,35.7,42.0,32.8,22.0,65,58,50,30.12,29.98,16,4,21,0.00
2013-12-20,59.0,54.3,48.8,58.0,47.0,34.0,97,78,50,29.98,29.84,11,6,20,0.01
2013-12-21,67.2,60.6,56.4,64.0,59.7,55.0,100,97,89,29.84,29.44,17,7,32,1.85
2013-12-22,60.8,53.5,39.7,61.0,50.7,38.0,100,90,77,30.02,29.51,22,5,27,0.33
2013-12-23,39.6,33.3,25.9,38.0,27.8,20.0,94,80,67,30.40,30.02,13,2,16,0.00
2013-12-24,25.8,20.3,14.6,22.0,14.1,10.0,90,77,61,30.58,30.38,7,1,15,0.00
2013-12-25,36.8,27.5,17.4,22.0,16.8,13.0,83,66,47,30.53,30.23,8,3,11,0.00
2013-12-26,42.5,35.4,31.5,28.0,25.2,22.0,82,67,50,30.38,30.21,9,2,17,0.00
2013-12-27,50.2,37.6,27.3,33.0,28.2,24.0,88,70,50,30.44,30.32,6,2,12,0.00
2013-12-28,52.9,42.4,34.2,35.0,30.4,28.0,77,64,50,30.31,30.04,11,2,13,0.00
2013-12-29,44.1,39.4,33.8,41.0,36.6,29.0,98,90,56,30.04,29.82,7,2,14,0.38
2013-12-30,33.5,28.4,23.0,32.0,23.7,19.0,95,83,75,30.25,30.03,4,1,11,0.00
2013-12-31,35.6,28.2,22.9,23.0,19.9,18.0,86,71,54,30.41,30.20,7,2,13,0.00
2014-1-1,47.9,36.5,26.3,33.0,26.3,22.0,84,68,48,30.31,30.02,7,2,12,0.00
2014-1-2,38.3,26.0,11.4,33.0,23.4,9.0,98,90,62,30.27,29.81,12,2,18,0.08